GFSSE_850_thetae_273.txt.gz
Theta_e
321 324 333 337 338 338 336 332 325 325 323 321 319 317 315 315 314 317 319 319 319 320 322 323 323 324 325 326 329 332 333 333 332 331 328 325 322 320 319 314 313 313 317
321 324 332 336 337 338 336 332 326 325 324 323 321 319 319 318 317 321 322 322 323 325 326 327 328 329 331 332 333 335 336 336 335 334 333 331 329 324 319 315 314 311 310
320 323 332 335 337 336 333 331 326 325 324 324 323 323 323 323 322 323 323 324 326 328 329 330 331 332 332 333 336 338 338 337 337 336 336 335 332 330 328 325 320 315 312
320 322 328 332 334 334 332 331 327 325 325 324 324 324 324 325 324 324 325 325 327 329 331 332 332 333 334 334 337 338 339 339 339 338 336 336 333 332 332 331 328 323 319
320 321 324 328 328 328 329 329 328 326 325 325 324 325 325 325 325 325 326 326 328 330 333 333 333 334 334 335 337 338 338 338 338 338 337 337 335 334 333 332 331 330 327
320 321 322 325 326 328 328 328 327 327 326 326 325 325 325 326 326 326 327 327 328 329 332 333 333 333 333 333 335 339 340 339 339 338 339 338 337 335 335 333 332 331 330
321 321 321 322 324 324 325 327 327 327 327 326 326 325 325 325 325 326 326 327 328 328 329 330 331 331 330 331 333 336 339 340 340 340 340 339 339 338 336 335 333 332 332
322 321 321 322 322 323 324 325 326 326 327 327 326 326 326 326 325 326 326 326 326 326 327 328 327 328 328 328 330 335 338 339 339 340 341 340 339 338 337 336 335 333 332
334 321 321 321 322 322 323 324 325 325 326 326 326 325 326 325 325 325 325 325 325 326 326 325 325 325 326 326 327 330 335 335 338 341 342 341 340 339 337 336 336 336 334
341 338 321 321 321 321 321 322 323 324 324 325 325 325 324 325 324 324 324 324 325 325 325 324 323 325 327 329 333 332 330 335 337 340 340 341 341 339 338 336 337 336 336
342 339 324 322 321 321 321 321 322 322 322 323 323 324 324 323 324 324 324 324 324 324 324 324 324 336 337 339 341 340 337 336 337 341 341 340 341 341 338 337 337 337 336
341 343 338 325 324 323 322 322 322 321 321 322 322 323 323 324 327 339 339 338 337 332 323 324 325 327 342 342 341 343 343 341 341 340 341 341 339 339 337 337 337 337 337
341 342 344 343 338 337 339 337 341 335 323 322 322 322 323 337 340 344 344 341 340 338 339 329 333 339 343 343 340 340 341 342 340 341 340 342 340 339 339 337 336 337 337
342 344 344 344 344 343 343 343 344 340 335 341 332 326 324 326 341 344 345 343 339 341 341 340 341 340 341 343 343 342 337 338 341 340 339 339 340 342 342 339 338 337 337
344 345 344 344 343 343 343 344 346 345 343 344 343 341 340 329 337 343 344 343 342 341 342 343 342 342 343 344 343 343 342 342 341 341 340 341 340 341 338 337 338 337 337
343 344 344 344 344 344 346 347 347 346 345 344 343 343 343 342 333 338 340 340 340 340 339 339 340 342 342 345 344 343 342 342 340 340 340 342 341 338 336 337 339 338 336
347 347 346 346 345 345 343 348 346 346 347 345 345 344 344 343 342 338 338 338 336 337 336 337 338 339 340 342 344 345 345 341 339 340 332 341 340 342 339 337 341 339 338
350 350 349 349 349 350 349 344 346 345 345 346 347 346 345 344 343 343 339 338 337 338 338 338 338 339 340 342 343 343 344 342 333 331 334 338 340 337 341 340 338 339 339
354 352 351 352 353 352 351 347 345 347 348 349 349 347 346 345 345 345 344 337 337 339 338 337 337 336 336 337 339 342 342 341 338 332 330 331 337 340 337 341 337 338 341
356 355 353 352 353 354 353 351 349 350 350 351 350 350 348 346 345 346 345 342 341 341 341 340 340 341 341 340 343 343 341 338 338 335 334 337 330 335 337 340 339 340 340
353 354 353 352 353 354 355 353 350 351 350 350 349 347 345 346 346 347 346 345 343 344 344 343 341 344 345 345 343 338 336 338 336 332 329 330 331 330 332 329 341 340 340
352 350 349 351 353 351 353 353 352 351 350 350 349 348 347 347 346 345 344 344 342 344 346 345 342 342 342 341 338 336 336 334 333 331 331 331 331 329 333 338 340 339 341
345 348 347 348 348 347 347 350 350 349 348 348 347 346 346 345 344 343 341 343 343 342 342 338 333 332 332 333 331 329 330 331 330 330 330 331 329 331 334 337 338 338 338
338 339 341 345 347 348 348 348 350 349 347 345 344 342 342 342 341 338 336 337 336 336 335 335 335 335 336 337 335 334 333 333 331 330 329 335 334 332 329 333 337 340 338
337 333 337 339 338 343 344 344 345 345 343 342 340 336 333 334 332 330 329 330 329 329 328 329 330 331 333 333 333 334 334 334 334 332 333 332 332 335 330 334 333 337 338
329 327 326 324 325 327 329 331 329 335 334 331 329 328 327 325 323 314 312 311 311 310 311 313 315 319 327 329 331 331 332 332 334 334 334 335 333 331 334 331 330 334 335

GFSSE_850_thetae_276.txt.gz
Theta_e
327 334 338 337 337 332 326 324 323 321 318 317 315 315 315 315 317 319 318 319 322 323 323 323 323 323 326 331 333 332 332 332 332 331 329 326 325 321 316 313 313 314 320
325 335 338 337 335 331 326 324 323 322 320 319 319 318 316 319 321 321 322 324 325 326 327 328 329 330 332 333 335 336 335 335 335 334 333 331 329 326 322 317 313 311 311
325 331 336 336 334 330 326 324 324 323 322 322 322 322 320 322 323 323 324 326 328 329 329 331 332 332 333 335 337 338 338 337 336 336 334 333 332 331 329 325 320 317 315
323 329 333 333 331 328 326 324 324 323 323 323 323 323 323 323 323 324 325 327 329 330 331 332 332 333 335 336 338 338 338 338 337 337 336 335 333 332 331 330 327 325 323
322 328 331 331 329 327 326 325 324 324 323 323 323 324 324 324 324 325 325 327 329 331 332 332 333 334 334 336 338 338 338 337 338 338 338 337 335 335 333 332 331 330 328
322 326 330 331 328 327 327 325 325 324 324 324 324 324 324 324 324 325 326 327 328 330 332 332 332 333 333 335 338 338 338 338 338 337 338 337 338 337 335 333 332 331 330
321 324 327 327 327 327 327 326 326 325 325 324 324 324 323 324 324 325 326 326 327 327 328 329 329 329 330 333 336 338 339 339 338 339 339 339 339 338 336 336 333 332 331
321 322 324 326 326 326 326 326 326 326 325 325 324 324 324 324 324 325 325 326 326 326 326 326 327 327 327 328 332 335 338 338 338 339 341 340 340 339 338 336 335 334 332
320 321 323 324 325 325 326 325 325 325 325 324 324 324 324 324 325 325 325 325 325 325 325 324 324 325 326 327 327 333 336 336 336 339 340 341 341 340 339 337 336 336 335
326 321 321 322 322 323 323 324 324 324 324 324 324 324 324 324 324 324 324 324 324 324 324 323 326 327 331 335 334 332 331 334 336 338 340 339 339 341 340 338 336 336 336
339 334 321 321 321 321 322 322 322 322 323 323 323 323 323 323 323 323 324 324 324 323 323 324 329 340 340 342 343 343 343 340 336 338 340 338 340 341 340 337 337 336 336
341 334 324 322 321 321 321 321 321 321 321 322 322 322 322 323 323 331 328 335 336 332 331 323 325 328 340 341 340 340 342 344 341 341 339 340 341 342 340 337 337 337 336
342 341 333 324 324 324 323 322 324 326 322 321 321 321 322 322 323 330 334 338 335 340 340 330 339 336 340 343 343 341 340 338 340 340 340 341 340 342 340 340 338 337 337
341 341 340 335 330 340 331 336 343 342 329 326 325 322 322 322 326 334 336 340 340 339 342 342 341 341 341 342 343 342 340 341 339 339 340 339 340 341 341 341 340 338 337
341 342 343 343 343 342 339 342 344 343 337 341 341 337 334 333 324 335 338 342 342 342 340 341 340 341 342 343 344 343 341 342 339 341 335 335 336 340 340 340 341 339 338
338 341 344 344 343 343 343 342 344 345 344 343 343 343 343 343 339 334 339 341 341 340 339 339 338 339 340 341 341 342 344 342 342 340 333 338 337 340 337 339 341 339 339
337 343 344 343 343 343 344 345 345 345 345 345 344 344 344 344 343 342 338 336 339 339 339 339 338 338 337 337 340 341 341 342 340 338 336 334 333 339 334 334 339 339 339
342 343 344 343 343 343 345 346 347 346 346 347 346 345 344 345 344 342 343 344 340 337 337 338 338 337 337 337 337 337 339 341 340 339 338 332 332 335 336 333 333 340 341
344 344 344 344 344 345 344 346 347 347 347 347 346 346 346 346 344 343 343 343 343 340 338 339 340 338 337 337 338 338 339 341 342 338 337 335 333 333 333 332 333 331 340
350 349 348 346 346 346 347 351 349 346 346 346 346 346 347 345 345 330 344 346 344 341 339 341 341 341 341 343 345 345 343 341 337 336 336 331 330 331 332 330 330 332 333
353 353 352 351 352 353 353 353 350 348 346 347 349 349 347 346 344 341 345 345 344 344 342 341 342 343 342 342 341 340 339 339 338 335 333 331 330 330 330 331 330 330 331
354 354 354 353 352 352 353 352 352 352 352 352 350 349 348 346 345 345 345 345 346 344 343 343 343 341 338 334 332 332 332 332 332 332 330 330 331 333 330 330 330 333 337
351 351 350 351 349 351 351 349 352 349 348 349 348 348 346 345 344 343 342 340 341 342 341 340 338 337 335 335 337 334 333 330 333 332 331 330 330 332 332 330 332 335 336
348 349 346 344 344 347 346 346 347 349 348 345 344 343 342 341 340 341 338 337 337 336 333 331 330 330 331 331 332 332 333 334 335 332 333 332 333 333 332 331 333 331 334
336 337 338 341 343 346 347 347 346 348 345 342 341 340 338 334 332 330 326 325 320 317 315 313 313 315 322 327 329 329 329 331 331 331 332 332 333 334 331 331 331 331 330
333 334 336 338 338 341 342 341 342 342 340 336 332 330 326 323 317 313 312 312 311 311 311 311 311 310 312 319 323 326 327 329 331 329 330 331 332 333 332 332 333 329 330

GFSSE_850_thetae_279.txt.gz
Theta_e
327 335 339 338 333 324 323 322 318 316 315 315 315 315 315 316 316 316 319 320 322 323 323 323 324 328 330 331 332 332 333 333 332 330 328 326 324 321 316 313 313 322 324
326 335 338 337 330 324 323 322 320 319 318 317 316 315 318 320 319 320 323 325 326 327 328 328 330 332 333 334 335 335 335 335 334 333 331 330 329 327 321 317 314 314 321
329 333 337 336 329 324 323 322 321 321 321 320 319 319 321 322 322 324 326 327 328 329 331 331 332 334 335 336 337 337 336 336 336 335 333 332 331 331 329 325 323 321 317
331 334 336 335 328 324 323 323 322 322 322 322 322 321 322 323 323 325 327 328 329 331 331 332 332 334 336 337 338 338 337 337 337 337 336 335 333 332 331 329 327 326 325
330 333 335 333 328 325 324 323 323 322 323 323 323 323 323 323 324 325 327 329 330 331 331 332 333 334 336 337 337 337 337 337 337 338 337 337 336 334 333 332 331 330 329
329 333 334 332 328 326 324 324 323 323 323 323 323 323 324 324 325 325 326 328 330 331 331 332 332 333 334 336 337 338 338 339 338 338 338 338 339 337 335 334 332 331 330
328 332 333 330 328 327 325 324 324 323 323 323 323 323 324 324 325 325 325 326 327 328 329 329 330 330 332 334 337 338 339 339 339 338 339 339 340 339 337 335 334 333 331
328 331 331 330 328 327 325 325 324 324 323 323 323 323 323 324 324 324 324 324 325 325 325 325 326 326 327 329 333 335 338 338 337 337 339 340 340 340 339 337 335 335 333
324 326 327 327 327 326 325 325 324 324 324 324 324 324 323 323 324 324 324 324 324 324 323 323 324 326 327 327 327 334 336 338 335 336 338 340 339 340 340 339 337 335 335
323 324 324 324 324 325 325 324 324 324 324 323 324 324 324 323 324 324 323 324 324 324 323 329 330 332 333 336 335 333 331 332 334 336 337 339 338 340 340 340 337 337 336
321 322 322 322 322 322 323 323 323 323 323 323 323 323 323 324 323 323 323 323 324 324 323 324 336 339 339 341 342 342 343 343 341 338 337 339 340 341 341 340 337 337 336
327 323 321 321 321 321 321 321 322 322 322 322 323 323 323 323 323 325 323 327 332 331 336 325 324 327 334 341 340 340 340 340 342 341 340 340 340 341 341 340 339 338 337
338 334 328 321 321 321 321 321 321 321 321 321 322 322 323 323 323 327 331 335 333 338 340 337 334 337 335 340 343 342 341 340 340 339 340 338 340 338 340 342 340 339 337
339 337 334 326 322 322 322 322 324 338 330 322 321 321 321 322 322 326 335 339 339 338 340 341 341 341 341 342 342 343 343 342 341 338 339 339 339 339 339 341 340 339 338
340 340 339 335 329 326 326 325 340 342 337 328 336 329 325 327 329 326 335 337 339 341 340 340 340 339 338 339 341 341 341 342 342 340 340 339 335 336 339 341 340 340 339
339 340 339 340 339 339 336 336 341 343 342 341 343 342 342 342 342 337 334 336 337 339 339 339 338 338 338 338 339 340 341 341 340 340 339 338 337 337 335 335 339 338 340
340 341 341 341 342 343 341 341 342 344 344 344 343 343 343 343 343 342 340 339 338 338 338 338 339 338 338 337 337 337 337 338 339 340 340 338 337 332 332 337 334 334 335
340 340 341 343 343 343 342 343 343 344 345 345 346 344 344 344 344 342 342 339 339 340 340 339 338 338 338 338 337 337 337 338 338 339 340 339 335 335 333 332 337 333 332
341 340 338 343 344 343 343 344 344 348 348 346 346 346 346 346 345 339 341 341 342 341 342 341 339 339 341 340 340 340 340 342 341 340 339 335 334 331 330 335 334 330 330
341 341 341 344 344 343 343 345 348 349 348 348 346 344 344 345 346 345 342 342 343 344 343 343 340 339 341 341 342 340 340 339 337 335 335 333 331 330 330 330 330 330 330
342 342 343 344 344 343 344 346 349 347 346 346 347 347 347 346 346 345 343 338 344 345 345 343 341 340 341 341 339 337 336 335 333 332 331 330 330 330 331 332 333 331 330
347 345 345 344 344 344 346 347 348 347 347 348 346 345 343 346 346 345 343 344 344 342 343 342 339 339 338 336 335 334 334 334 331 333 333 332 330 332 331 332 330 330 331
349 349 350 350 350 349 350 351 349 349 349 349 347 346 345 344 345 343 343 340 341 338 337 336 334 332 330 329 329 331 332 332 331 330 328 329 331 332 333 332 332 331 333
354 353 352 351 352 351 351 352 351 348 347 346 346 345 343 342 341 340 338 337 332 325 321 321 319 317 317 321 325 327 329 330 330 330 330 329 330 331 333 334 331 331 332
351 350 349 347 346 344 346 346 346 344 343 345 343 341 338 337 332 325 320 314 313 312 311 311 311 311 312 316 322 324 325 327 328 326 328 328 328 329 331 333 332 332 330
348 347 345 343 344 343 345 344 346 343 345 342 338 335 329 317 314 312 312 311 311 310 309 308 309 309 311 314 317 321 322 322 323 323 324 326 326 327 329 333 333 331 331

GFSSE_850_thetae_282.txt.gz
Theta_e
327 335 337 336 330 323 321 318 316 315 316 316 316 315 314 314 315 318 319 320 321 321 322 325 329 330 331 332 333 334 333 333 332 331 330 328 326 321 317 315 319 320 328
326 334 337 335 329 323 321 319 318 317 316 316 315 316 317 317 320 322 324 325 326 327 328 330 331 332 334 335 335 335 335 335 334 333 332 331 329 327 324 322 321 321 318
328 334 335 333 327 323 322 320 318 318 317 316 317 320 320 321 323 325 327 327 329 330 330 330 332 334 336 336 336 335 336 336 336 336 335 334 332 331 329 327 326 325 323
328 332 334 333 326 323 322 321 320 320 319 318 320 321 322 323 325 327 328 329 330 330 330 331 333 334 336 336 336 336 336 336 337 337 337 336 335 333 332 330 329 328 326
330 332 333 332 326 323 322 322 321 321 321 321 321 322 323 324 326 327 328 329 330 331 332 332 333 334 335 336 337 337 337 337 338 338 338 338 337 335 334 332 331 330 329
331 333 333 331 327 323 323 322 322 322 322 323 323 323 323 324 325 326 327 329 330 331 331 331 332 332 333 335 337 338 338 338 338 338 339 339 339 337 336 334 333 331 330
331 333 334 331 327 324 323 323 323 323 323 323 323 323 323 324 324 325 326 326 328 329 329 329 329 330 331 333 335 337 338 338 337 338 339 340 340 339 338 336 335 334 333
329 332 333 330 328 325 324 323 323 323 323 323 323 323 323 324 324 325 325 324 324 325 325 326 326 327 328 329 332 333 336 337 337 335 338 339 339 339 339 338 336 335 335
329 331 330 328 327 326 324 324 324 323 323 323 323 323 323 324 324 324 324 324 323 323 324 325 325 326 327 327 327 329 333 335 334 335 336 338 339 339 339 339 338 336 335
327 329 329 327 326 325 324 324 324 324 324 324 324 324 323 323 324 324 324 324 324 324 325 329 329 331 334 335 335 337 337 338 338 336 337 337 339 340 340 340 339 338 336
326 326 326 326 325 325 324 323 324 324 324 324 324 324 324 323 323 323 324 324 323 323 323 327 336 338 338 339 340 340 340 341 342 342 339 337 339 339 340 341 340 340 337
321 321 322 323 323 323 323 323 323 323 323 324 324 323 324 324 324 323 323 324 327 329 335 326 324 326 328 335 340 340 341 341 340 340 340 340 338 339 339 340 341 341 339
324 322 321 321 322 322 321 322 322 322 322 322 323 323 323 323 323 323 328 328 333 335 339 339 336 339 339 340 341 341 342 341 342 341 340 339 339 339 339 339 340 341 340
331 330 327 321 321 321 321 321 321 321 321 321 321 321 322 322 322 323 326 337 338 339 338 339 340 340 340 341 339 342 342 340 341 341 339 338 339 337 335 335 339 339 340
336 336 333 326 322 321 322 321 321 328 335 328 323 325 323 322 330 326 331 337 339 340 341 340 339 339 339 338 338 338 339 340 341 340 338 338 338 338 337 335 336 339 340
337 339 338 333 329 323 325 325 325 340 341 331 340 340 339 340 341 339 333 335 338 339 339 339 338 337 337 338 337 337 337 337 337 338 339 339 338 336 336 334 334 336 337
337 337 339 338 338 330 334 332 330 341 343 341 342 342 342 342 342 341 340 337 339 339 339 339 339 338 337 337 337 337 336 336 336 337 337 337 337 336 335 334 333 335 335
337 337 338 340 338 338 340 339 338 341 343 343 343 344 343 342 342 341 341 341 340 339 340 341 341 341 340 338 336 337 337 337 340 341 340 339 336 335 334 332 331 332 337
338 338 338 340 340 340 341 342 341 342 343 344 344 345 344 344 345 345 344 341 341 341 342 342 342 341 340 339 338 337 338 338 339 338 335 334 333 333 331 330 330 330 333
340 342 340 340 341 341 341 342 341 343 345 347 345 346 346 344 343 345 345 343 341 342 339 343 342 342 340 340 339 339 338 337 336 334 333 332 331 331 330 330 330 331 331
343 343 342 341 340 342 342 342 342 343 347 347 346 346 346 345 344 344 344 343 342 340 342 340 340 338 338 337 337 336 335 334 334 333 332 331 331 330 330 331 332 332 330
343 343 342 340 339 342 343 343 343 346 348 347 346 346 346 345 344 343 344 343 343 342 339 339 337 332 331 330 329 328 330 329 331 328 328 329 329 330 331 333 333 331 331
342 342 340 341 342 343 343 343 344 348 347 345 345 346 346 343 342 342 342 341 340 338 333 330 324 321 320 321 323 325 329 330 328 326 324 326 327 329 329 331 334 331 330
344 342 342 343 344 344 343 344 345 347 348 344 346 346 345 344 342 340 338 334 327 322 316 313 311 311 312 312 317 322 326 326 326 325 322 319 323 325 327 331 333 331 333
348 347 347 347 348 349 348 346 349 348 344 343 343 343 342 340 337 336 323 318 313 312 311 310 310 310 311 312 313 314 317 321 321 321 322 317 315 322 325 327 331 333 333
350 350 350 351 351 351 351 351 350 348 345 341 341 341 336 330 321 315 312 312 310 308 307 307 306 305 306 309 312 314 315 317 320 320 321 321 319 315 320 324 331 332 333

GFSSE_850_thetae_285.txt.gz
Theta_e
330 336 337 337 326 323 318 315 314 315 315 316 316 315 314 315 317 319 320 321 321 324 328 330 331 332 332 333 334 334 334 334 333 333 332 331 329 326 324 324 323 327 327
329 333 335 334 324 322 318 316 315 316 316 316 315 316 317 320 322 324 325 326 326 329 330 331 333 334 335 334 335 336 336 336 336 335 334 333 331 329 328 327 325 323 321
329 332 334 331 324 322 319 317 316 316 316 316 319 319 320 323 325 327 327 328 329 329 330 332 334 334 336 336 335 336 337 337 337 337 336 334 333 332 330 328 327 325 323
330 334 335 331 324 322 320 319 318 318 317 319 321 321 323 325 327 327 328 329 329 330 330 332 334 334 335 336 336 336 336 337 337 338 337 337 335 334 332 330 329 328 327
331 334 333 329 324 322 321 320 320 320 320 321 322 322 324 326 327 328 329 329 329 330 331 332 333 334 335 337 337 337 338 338 338 339 338 338 337 336 334 333 331 331 329
332 334 333 329 324 323 322 321 321 321 321 322 322 323 324 325 326 327 328 329 329 330 330 331 332 332 333 336 336 337 337 337 336 339 339 339 339 338 337 335 333 331 331
332 334 332 328 324 323 322 322 322 322 322 322 322 323 324 324 325 326 327 328 329 329 329 329 330 330 330 331 333 334 336 337 337 336 337 339 339 339 339 337 335 333 332
331 332 331 328 326 324 323 322 322 322 323 323 323 323 324 324 324 324 325 326 326 327 326 327 327 327 327 327 328 331 333 335 336 334 335 337 338 339 339 339 338 335 334
330 330 330 329 327 324 324 323 323 323 323 323 323 323 323 324 324 324 324 324 325 325 325 326 327 327 328 329 330 331 333 334 336 336 336 336 337 339 339 340 340 338 336
330 328 328 328 327 326 324 324 324 323 323 323 323 323 323 323 324 324 324 324 324 325 326 328 329 330 331 334 336 337 339 340 342 342 342 339 337 339 339 340 340 340 339
328 327 327 327 326 326 325 324 324 324 324 324 324 324 323 323 323 324 324 324 324 324 324 328 333 335 336 336 337 337 339 340 340 340 340 340 339 338 339 340 340 341 340
324 325 325 325 325 326 325 325 324 324 324 324 324 324 324 324 323 323 323 323 325 329 330 328 325 326 326 329 334 339 341 342 342 341 340 340 339 339 339 339 340 340 341
321 323 323 324 324 324 324 324 324 323 324 324 324 324 324 324 323 323 327 324 332 334 339 339 336 338 339 340 341 341 341 342 341 341 341 339 337 338 339 336 335 337 340
322 322 322 322 323 322 323 323 323 322 322 322 323 323 323 323 323 323 324 332 337 338 337 338 339 340 340 339 339 339 339 340 339 340 340 338 337 337 338 337 337 336 337
327 327 324 322 321 321 322 322 322 321 324 324 322 322 322 322 322 325 325 334 339 339 339 339 338 338 338 338 338 338 337 337 337 337 337 338 339 339 338 337 335 334 337
332 334 333 330 324 321 321 322 321 322 334 333 327 330 332 331 334 338 335 330 335 339 339 339 338 337 337 336 336 336 337 336 336 336 336 337 337 337 337 336 335 334 335
336 337 338 337 331 326 323 323 323 330 340 337 335 340 340 340 341 341 341 341 338 338 339 339 340 341 341 340 339 338 337 337 337 337 338 339 338 338 336 335 334 333 332
336 337 337 339 338 335 332 329 327 330 341 342 339 339 340 342 342 341 341 342 341 341 340 340 341 341 342 340 340 339 338 338 337 338 338 338 336 334 333 333 333 331 330
337 337 337 337 339 338 335 333 333 332 338 341 343 343 342 343 343 343 344 344 343 341 340 341 340 342 342 341 340 339 339 338 337 337 335 333 332 332 331 331 331 330 330
339 338 337 337 337 339 335 333 337 340 341 342 343 344 344 345 344 344 344 343 342 342 341 340 340 339 339 338 337 336 337 336 335 334 333 332 331 330 331 331 330 331 331
339 339 339 338 338 339 339 334 339 341 342 343 344 346 345 345 345 344 344 343 342 341 341 341 339 337 335 333 331 329 328 329 332 332 332 328 329 329 330 331 332 333 332
339 340 341 341 341 339 340 338 339 341 341 343 347 346 345 345 345 344 343 343 343 341 339 339 337 334 329 325 322 324 331 331 330 324 325 327 326 327 328 328 330 333 331
341 342 343 343 342 341 341 341 340 341 342 345 346 343 343 345 344 342 341 340 340 338 333 330 327 321 315 315 315 322 328 328 326 327 326 322 316 323 326 329 330 332 332
344 343 342 342 342 341 340 341 343 342 342 345 347 344 345 344 342 340 338 336 330 323 316 314 313 313 312 312 314 317 320 325 326 323 322 322 313 318 323 325 329 331 333
344 343 342 341 341 340 341 343 343 342 344 346 346 345 343 342 337 332 326 320 314 312 312 309 308 307 307 308 309 311 313 317 323 322 320 320 319 320 317 325 328 331 332
345 345 343 341 340 342 342 343 343 343 345 346 343 342 340 340 333 323 318 313 312 309 309 309 308 307 306 305 306 307 309 312 318 318 319 318 317 316 312 321 326 325 327

GFSSE_850_thetae_291.txt.gz
Theta_e
346 327 330 323 320 317 323 329 333 335 327 323 317 315 317 318 318 322 322 327 329 331 332 333 334 335 336 336 336 335 335 335 334 335 334 331 329 327 329 334 336 329 328
348 330 327 322 320 316 315 319 320 318 318 317 315 318 321 323 323 324 327 329 331 332 334 334 334 335 336 336 336 337 337 337 338 339 339 337 333 331 329 326 326 322 323
346 331 325 322 319 316 315 315 316 317 316 316 318 321 324 325 326 327 329 330 331 333 334 336 335 335 336 336 337 337 338 339 340 340 341 340 336 334 333 331 327 325 322
347 340 324 322 320 317 316 317 317 316 317 318 322 325 326 327 328 328 329 330 331 332 332 334 336 336 336 337 337 337 337 339 342 342 342 341 340 336 335 334 332 327 327
346 347 324 322 320 318 317 317 317 317 319 320 324 326 326 327 328 328 329 329 330 331 331 332 334 335 336 336 336 336 336 341 343 343 343 342 342 339 337 336 335 334 327
345 347 323 322 321 318 317 317 317 320 321 322 324 326 327 327 328 328 328 329 329 330 330 330 331 332 333 334 334 335 335 340 343 343 344 343 343 339 339 338 336 335 334
345 344 323 323 321 320 319 319 319 321 322 323 324 325 326 327 327 327 327 328 329 329 329 328 328 328 329 330 331 333 333 337 342 343 343 342 343 339 339 340 339 337 336
346 344 324 323 322 321 321 320 321 321 322 323 324 325 326 326 326 326 327 327 327 328 328 328 328 329 330 332 335 337 340 340 340 344 343 342 342 337 338 338 340 339 338
346 345 326 323 323 322 321 322 322 322 322 323 323 324 324 325 325 325 326 326 326 327 329 330 331 332 335 337 338 339 339 339 344 346 345 345 343 338 338 339 339 339 339
344 346 342 335 323 323 322 322 323 323 323 323 323 324 324 324 324 324 324 325 326 327 328 330 332 334 336 338 338 338 340 340 344 347 345 346 342 338 339 339 338 338 339
341 344 342 341 340 339 336 323 323 323 323 323 323 323 324 327 327 328 326 330 324 325 326 329 331 333 333 333 343 343 340 346 346 344 342 346 341 339 337 337 339 337 336
340 342 342 341 340 340 341 327 323 323 323 323 324 324 325 340 341 340 340 327 324 324 325 326 331 329 333 345 347 344 346 347 340 342 342 344 343 341 339 338 337 338 337
338 340 341 342 342 339 340 340 340 340 340 339 341 343 336 340 339 335 335 337 334 334 335 343 346 345 347 345 341 343 342 341 342 341 344 343 343 341 339 339 339 339 338
338 339 340 342 344 341 339 342 341 341 341 342 342 336 343 339 340 340 338 338 341 341 344 345 343 343 344 345 344 343 343 342 340 342 340 341 342 339 336 336 337 337 337
337 338 339 343 346 344 342 341 341 340 341 341 343 342 341 341 341 340 339 339 338 341 344 344 344 344 345 345 344 344 343 343 342 342 342 341 341 341 340 339 339 338 338
337 339 339 343 347 345 343 343 341 342 340 341 342 341 338 342 342 340 343 344 341 342 344 345 346 348 346 345 345 346 345 346 345 345 344 344 342 343 343 341 338 337 335
340 341 341 342 347 340 340 342 342 341 339 342 344 344 343 340 344 344 346 347 347 348 348 347 347 347 347 346 346 345 345 345 346 345 345 345 345 343 342 340 339 337 334
344 344 345 343 345 334 344 335 342 341 340 343 346 345 344 345 343 347 348 348 347 349 349 348 347 346 346 345 347 346 344 345 344 345 344 344 344 342 341 341 338 337 333
343 346 347 346 345 344 336 342 340 341 342 344 346 346 347 346 347 343 348 349 349 350 349 349 347 346 346 345 345 344 343 343 344 343 342 342 341 339 336 336 336 334 338
344 344 342 346 347 347 342 336 343 342 343 343 346 347 349 350 349 349 351 350 349 350 348 347 346 347 345 344 343 342 342 341 340 338 338 336 335 334 333 334 335 336 336
346 346 340 342 342 347 348 346 344 344 345 343 345 349 352 351 353 352 350 348 347 348 345 345 345 344 344 341 340 336 332 336 338 335 334 332 332 329 329 333 334 337 336
346 348 347 340 338 338 347 347 346 344 345 347 350 352 352 353 352 351 350 349 346 345 344 341 339 339 340 337 334 328 327 327 337 329 329 330 329 326 328 330 335 335 332
347 350 352 348 341 338 343 348 346 345 345 349 352 353 349 348 346 343 343 346 344 343 343 338 335 332 332 329 329 327 327 327 325 330 327 324 324 323 325 326 332 329 332
347 350 353 353 349 344 341 348 348 346 347 351 351 350 345 346 344 341 343 344 342 338 336 332 326 321 317 324 323 326 326 326 326 325 323 322 320 320 320 322 326 331 330
347 351 351 353 353 351 347 346 349 348 349 350 350 350 346 344 345 342 344 342 340 333 332 323 315 311 324 318 322 322 321 321 322 322 319 319 319 319 320 319 325 328 329
339 350 354 353 353 352 350 345 348 349 348 349 351 348 344 344 345 343 342 340 335 329 318 314 311 311 315 314 319 319 320 320 320 318 318 317 317 316 316 321 320 325 327

GFSSE_850_thetae_297.txt.gz
Theta_e
327 318 319 330 334 335 336 336 328 321 317 319 319 321 324 325 327 328 329 330 332 333 334 335 335 335 336 336 336 337 339 339 338 337 336 334 333 325 322 323 320 319 318
327 319 318 326 331 331 328 323 319 318 319 321 322 322 324 326 328 328 329 331 332 332 334 334 335 336 337 338 338 339 340 341 340 340 339 337 336 334 328 322 322 320 321
321 320 317 318 321 321 317 317 318 318 321 323 324 324 325 327 327 328 329 331 333 333 334 334 335 335 337 337 339 341 340 341 342 341 340 339 338 336 335 334 324 322 322
321 320 318 317 317 317 317 318 319 319 322 324 324 325 326 326 327 327 328 329 332 334 334 334 334 335 335 335 338 341 341 342 342 343 341 340 340 338 336 335 334 332 324
321 320 319 318 318 318 318 319 319 321 323 324 324 325 325 325 325 326 326 327 328 331 332 332 331 330 331 334 335 341 341 342 343 343 341 340 341 337 337 336 335 335 334
322 321 319 319 319 319 318 320 320 321 323 324 324 325 325 325 325 325 326 326 327 328 329 330 331 332 332 332 334 336 339 342 343 343 343 341 339 337 336 336 336 336 336
322 321 320 319 319 319 319 320 321 322 323 324 324 325 325 325 326 326 327 327 327 327 328 329 330 332 335 337 336 337 337 338 340 342 345 343 342 340 336 336 336 336 336
322 321 320 320 320 320 320 321 321 322 323 324 324 325 325 325 326 327 328 328 329 330 330 332 334 336 337 336 337 337 338 342 342 340 342 342 343 340 336 335 336 336 337
324 322 321 321 320 320 320 321 321 322 323 323 324 324 325 325 326 326 327 327 328 329 330 331 332 332 333 335 339 339 338 339 340 342 342 338 343 341 338 337 337 336 336
343 322 321 321 321 321 321 321 321 321 322 323 323 324 324 325 325 325 326 327 327 328 329 329 328 326 327 329 339 344 344 344 344 341 338 342 344 342 340 340 339 337 337
340 322 322 321 321 321 321 321 321 321 322 322 323 323 323 323 324 324 324 326 324 324 324 324 340 338 341 346 344 344 345 344 342 335 341 344 340 339 343 340 338 335 336
344 335 322 322 322 321 321 322 322 321 321 321 322 323 323 323 337 338 336 331 336 336 339 338 341 343 345 345 341 343 345 345 343 343 343 344 342 342 340 341 340 341 337
344 345 336 327 322 323 322 322 322 322 322 322 321 321 324 338 340 341 334 336 339 341 342 344 344 345 344 344 344 345 345 343 343 343 343 344 343 343 342 341 341 341 340
345 344 342 341 338 334 337 323 322 322 322 322 322 322 322 339 342 342 339 338 340 342 342 344 343 344 345 345 346 344 344 343 343 341 345 345 344 343 342 344 342 341 339
343 343 342 342 340 339 341 340 336 329 334 331 329 325 325 339 342 341 339 339 339 340 340 343 344 347 346 345 345 345 345 344 344 336 342 344 343 343 344 343 339 337 335
339 342 342 342 341 340 342 341 338 339 341 341 341 339 337 329 337 340 341 339 337 338 339 342 344 344 344 345 343 345 343 345 344 345 344 344 343 343 343 340 337 334 332
338 340 341 341 342 340 343 341 339 341 342 341 342 342 341 333 335 340 340 338 345 346 347 348 346 347 347 344 344 342 342 342 342 341 340 342 341 340 339 337 333 332 334
338 339 339 340 341 341 339 342 341 342 341 341 342 342 341 339 335 332 335 339 344 346 347 346 346 346 346 344 344 343 342 340 340 340 340 339 337 337 337 333 332 333 334
337 338 338 338 339 340 339 339 340 340 340 341 340 339 339 341 336 332 337 340 344 347 347 345 345 347 346 344 343 341 339 341 339 340 337 337 335 333 332 330 333 332 332
337 337 338 338 337 339 338 332 341 340 340 340 339 341 344 344 341 336 338 340 344 348 347 346 345 347 343 342 339 337 334 335 338 339 337 335 332 332 326 330 331 331 329
338 337 337 338 338 337 340 340 331 332 332 341 338 342 344 345 345 343 340 343 345 347 349 345 345 343 340 338 340 338 330 329 337 329 332 330 330 325 324 326 326 324 325
337 338 338 338 339 336 338 339 332 327 327 335 339 342 344 346 346 345 345 348 347 348 345 342 342 339 337 338 335 322 332 337 326 333 328 327 323 320 321 322 321 320 330
339 339 340 339 339 336 338 341 342 333 333 340 341 341 345 347 347 347 348 351 349 346 343 342 341 336 334 329 326 321 323 328 328 325 322 321 320 319 319 318 319 322 323
346 347 348 346 342 339 339 343 342 341 336 336 340 341 345 346 347 348 351 353 350 347 344 341 339 334 327 326 325 324 322 320 321 322 323 319 318 317 316 317 320 322 328
334 342 347 350 350 350 350 344 345 345 341 341 344 344 343 345 347 351 350 352 348 346 343 341 336 330 319 323 324 322 321 321 323 323 321 314 312 313 315 315 319 324 325
320 329 337 342 345 350 347 348 351 349 347 346 346 346 345 347 350 351 352 351 346 345 342 339 334 324 316 318 319 318 317 318 319 317 313 313 311 313 314 315 315 317 317